DLH123 EPSC-EPGD

Flight info

Callsign DLH123
Flight time 0h 29m
Altitude 24000
Route UNVO1F UNVOX L730 KOSEX KOSE5T
Aircraft A320/M-V/N

Departure

Time 2026-04-25 21:27
Airport Solidarity Szczecin–Goleniów Airport (EPSC)

Arrival

Time 2026-04-25 21:57
Airport Gdańsk Lech Wałęsa Airport (EPGD)
Time Latitude Longitude Altitude Speed Heading
2026-04-25 21:18 53.59313 14.89268 142 ft 0 kts 41°
2026-04-25 21:19 53.59303 14.89254 142 ft 2 kts 41°
2026-04-25 21:19 53.59290 14.89235 142 ft 2 kts 41°
2026-04-25 21:19 53.59277 14.89216 142 ft 2 kts 41°
2026-04-25 21:19 53.59264 14.89198 142 ft 2 kts 48°
2026-04-25 21:20 53.59257 14.89173 142 ft 2 kts 76°
2026-04-25 21:20 53.59254 14.89155 142 ft 2 kts 99°
2026-04-25 21:20 53.59259 14.89135 142 ft 0 kts 140°
2026-04-25 21:21 53.59255 14.89141 142 ft 4 kts 140°
2026-04-25 21:21 53.59205 14.89228 142 ft 14 kts 132°
2026-04-25 21:22 53.59142 14.89347 142 ft 13 kts 131°
2026-04-25 21:22 53.59084 14.89460 142 ft 12 kts 131°
2026-04-25 21:22 53.59028 14.89569 141 ft 12 kts 131°
2026-04-25 21:22 53.58973 14.89676 141 ft 13 kts 131°
2026-04-25 21:23 53.58905 14.89807 140 ft 16 kts 131°
2026-04-25 21:23 53.58827 14.89958 140 ft 17 kts 130°
2026-04-25 21:23 53.58749 14.90112 141 ft 19 kts 130°
2026-04-25 21:23 53.58643 14.90322 142 ft 28 kts 130°
2026-04-25 21:24 53.58505 14.90586 144 ft 30 kts 131°
2026-04-25 21:24 53.58371 14.90847 146 ft 29 kts 130°
2026-04-25 21:24 53.58241 14.91100 151 ft 28 kts 131°
2026-04-25 21:24 53.58122 14.91328 157 ft 24 kts 130°
2026-04-25 21:25 53.58023 14.91526 161 ft 21 kts 130°
2026-04-25 21:25 53.57935 14.91699 163 ft 18 kts 131°
2026-04-25 21:25 53.57845 14.91766 163 ft 14 kts 209°
2026-04-25 21:25 53.57837 14.91757 163 ft 0 kts 211°
2026-04-25 21:26 53.57791 14.91695 163 ft 16 kts 226°
2026-04-25 21:26 53.57811 14.91510 163 ft 21 kts 311°
2026-04-25 21:26 53.58017 14.91100 157 ft 80 kts 310°
2026-04-25 21:27 53.58518 14.90125 161 ft 138 kts 310°
2026-04-25 21:27 53.59239 14.88874 579 ft 157 kts 310°
2026-04-25 21:27 53.60019 14.87431 1118 ft 175 kts 310°
2026-04-25 21:27 53.60851 14.85791 1745 ft 194 kts 309°
2026-04-25 21:28 53.61788 14.84053 2492 ft 210 kts 320°
2026-04-25 21:28 53.63192 14.83160 3410 ft 227 kts 352°
2026-04-25 21:28 53.64754 14.83901 4497 ft 249 kts 27°
2026-04-25 21:28 53.65865 14.86284 5531 ft 276 kts 62°
2026-04-25 21:29 53.66052 14.89607 6555 ft 297 kts 93°
2026-04-25 21:29 53.65476 14.93001 7545 ft 306 kts 108°
2026-04-25 21:29 53.64586 14.96311 8488 ft 313 kts 112°
2026-04-25 21:29 53.63605 14.99627 9414 ft 319 kts 112°
2026-04-25 21:30 53.62883 15.03156 10195 ft 323 kts 93°
2026-04-25 21:30 53.62940 15.06970 10534 ft 331 kts 68°
2026-04-25 21:30 53.63665 15.10743 10870 ft 349 kts 63°
2026-04-25 21:30 53.64201 15.13322 11259 ft 356 kts 63°
2026-04-25 21:31 53.65307 15.18677 12253 ft 366 kts 63°
2026-04-25 21:31 53.66141 15.22775 13021 ft 373 kts 63°
2026-04-25 21:31 53.66981 15.26952 13761 ft 380 kts 63°
2026-04-25 21:31 53.67821 15.31156 14409 ft 386 kts 62°
2026-04-25 21:32 53.68691 15.35532 15091 ft 391 kts 62°
2026-04-25 21:32 53.69560 15.39920 15748 ft 397 kts 61°
2026-04-25 21:32 53.70428 15.44309 16407 ft 402 kts 60°
2026-04-25 21:32 53.71322 15.48823 17065 ft 408 kts 59°
2026-04-25 21:33 53.72224 15.53387 17705 ft 413 kts 59°
2026-04-25 21:33 53.73135 15.58025 18340 ft 418 kts 59°
2026-04-25 21:33 53.74048 15.62706 19045 ft 420 kts 60°
2026-04-25 21:33 53.74957 15.67396 19711 ft 421 kts 59°
2026-04-25 21:34 53.75876 15.72118 20288 ft 424 kts 59°
2026-04-25 21:34 53.76802 15.76864 20844 ft 428 kts 59°
2026-04-25 21:34 53.77738 15.81665 21384 ft 432 kts 58°
2026-04-25 21:34 53.78681 15.86511 21899 ft 437 kts 60°
2026-04-25 21:35 53.79636 15.91437 22314 ft 444 kts 60°
2026-04-25 21:35 53.80596 15.96426 22805 ft 448 kts 60°
2026-04-25 21:35 53.81565 16.01466 23306 ft 453 kts 59°
2026-04-25 21:35 53.82540 16.06550 23728 ft 456 kts 59°
2026-04-25 21:36 53.83522 16.11688 23855 ft 458 kts 60°
2026-04-25 21:36 53.84514 16.16868 23895 ft 466 kts 60°
2026-04-25 21:36 53.85516 16.22110 23892 ft 469 kts 60°
2026-04-25 21:36 53.86536 16.27436 23891 ft 482 kts 60°
2026-04-25 21:37 53.87574 16.32852 23890 ft 494 kts 60°
2026-04-25 21:37 53.88276 16.36540 23884 ft 498 kts 61°
2026-04-25 21:37 53.89676 16.44035 23871 ft 496 kts 62°
2026-04-25 21:37 53.90670 16.49504 23900 ft 475 kts 63°
2026-04-25 21:38 53.91860 16.54619 23883 ft 458 kts 53°
2026-04-25 21:38 53.93409 16.59235 23706 ft 442 kts 45°
2026-04-25 21:38 53.95095 16.63558 23176 ft 437 kts 45°
2026-04-25 21:38 53.96765 16.67855 22442 ft 434 kts 46°
2026-04-25 21:39 53.98408 16.72109 21822 ft 428 kts 46°
2026-04-25 21:39 54.00031 16.76334 21202 ft 423 kts 47°
2026-04-25 21:39 54.01626 16.80499 20613 ft 418 kts 47°
2026-04-25 21:39 54.03198 16.84621 20056 ft 412 kts 48°
2026-04-25 21:40 54.04728 16.88649 19509 ft 408 kts 48°
2026-04-25 21:40 54.06258 16.92681 18959 ft 403 kts 49°
2026-04-25 21:40 54.07767 16.96667 18463 ft 399 kts 52°
2026-04-25 21:40 54.09017 17.00897 17981 ft 402 kts 63°
2026-04-25 21:41 54.09834 17.05470 17820 ft 406 kts 73°
2026-04-25 21:41 54.10227 17.10265 17859 ft 410 kts 80°
2026-04-25 21:41 54.10506 17.15092 17856 ft 410 kts 80°
2026-04-25 21:41 54.10781 17.19931 16956 ft 414 kts 80°
2026-04-25 21:42 54.11064 17.24871 15976 ft 420 kts 80°
2026-04-25 21:42 54.11339 17.29810 15293 ft 417 kts 80°
2026-04-25 21:42 54.11604 17.34655 15064 ft 403 kts 80°
2026-04-25 21:42 54.11847 17.39267 14907 ft 377 kts 80°
2026-04-25 21:43 54.12063 17.43549 14780 ft 350 kts 79°
2026-04-25 21:43 54.12268 17.47564 14498 ft 332 kts 79°
2026-04-25 21:43 54.12475 17.51444 13976 ft 325 kts 79°
2026-04-25 21:43 54.12775 17.55213 13586 ft 319 kts 72°
2026-04-25 21:44 54.13193 17.58926 13138 ft 318 kts 73°
2026-04-25 21:44 54.13591 17.62627 12725 ft 316 kts 73°
2026-04-25 21:44 54.14356 17.69970 12019 ft 310 kts 73°
2026-04-25 21:45 54.14728 17.73567 11591 ft 311 kts 73°
2026-04-25 21:45 54.14855 17.74793 11407 ft 310 kts 73°
2026-04-25 21:45 54.15474 17.80782 10544 ft 306 kts 73°
2026-04-25 21:45 54.15846 17.84351 10019 ft 304 kts 73°
2026-04-25 21:46 54.16214 17.87886 9506 ft 301 kts 73°
2026-04-25 21:46 54.16576 17.91399 8950 ft 299 kts 73°
2026-04-25 21:46 54.16933 17.94870 8346 ft 296 kts 73°
2026-04-25 21:46 54.17284 17.98313 7744 ft 293 kts 73°
2026-04-25 21:47 54.17635 18.01748 7295 ft 293 kts 73°
2026-04-25 21:47 54.17984 18.05166 6829 ft 292 kts 73°
2026-04-25 21:47 54.18328 18.08582 6435 ft 289 kts 73°
2026-04-25 21:47 54.18662 18.11922 6104 ft 283 kts 73°
2026-04-25 21:48 54.18991 18.15208 5750 ft 277 kts 73°
2026-04-25 21:48 54.19313 18.18420 5400 ft 272 kts 73°
2026-04-25 21:48 54.19630 18.21574 5056 ft 267 kts 73°
2026-04-25 21:48 54.19942 18.24683 4716 ft 264 kts 73°
2026-04-25 21:49 54.20248 18.27751 4371 ft 261 kts 73°
2026-04-25 21:49 54.20449 18.29761 4138 ft 258 kts 73°
2026-04-25 21:49 54.20920 18.33682 3700 ft 249 kts 69°
2026-04-25 21:49 54.21213 18.35608 3468 ft 247 kts 68°
2026-04-25 21:50 54.21799 18.39319 3061 ft 241 kts 68°
2026-04-25 21:50 54.22092 18.41174 3002 ft 239 kts 68°
2026-04-25 21:50 54.22528 18.43927 3009 ft 241 kts 68°
2026-04-25 21:50 54.22962 18.46699 3008 ft 241 kts 68°
2026-04-25 21:51 54.23385 18.49429 3008 ft 241 kts 68°
2026-04-25 21:51 54.23817 18.52197 3009 ft 241 kts 68°
2026-04-25 21:51 54.24250 18.54928 3007 ft 231 kts 68°
2026-04-25 21:51 54.24656 18.57495 3005 ft 217 kts 63°
2026-04-25 21:52 54.25447 18.59515 3008 ft 199 kts 32°
2026-04-25 21:52 54.26555 18.60880 3008 ft 194 kts 26°
2026-04-25 21:52 54.27653 18.62089 3002 ft 182 kts 25°
2026-04-25 21:52 54.28718 18.63160 2978 ft 175 kts 20°
2026-04-25 21:53 54.29862 18.63941 2596 ft 179 kts
2026-04-25 21:53 54.31036 18.64316 2505 ft 161 kts 353°
2026-04-25 21:53 54.31944 18.63562 2498 ft 141 kts 311°
2026-04-25 21:53 54.32500 18.62239 2203 ft 137 kts 313°
2026-04-25 21:54 54.33178 18.61056 1761 ft 142 kts 319°
2026-04-25 21:54 54.33909 18.59900 1317 ft 143 kts 318°
2026-04-25 21:54 54.34564 18.58712 1229 ft 128 kts 317°
2026-04-25 21:54 54.35063 18.57478 1214 ft 125 kts 304°
2026-04-25 21:55 54.35346 18.56091 1161 ft 124 kts 295°
2026-04-25 21:55 54.35625 18.54730 1130 ft 119 kts 301°
2026-04-25 21:55 54.35992 18.53465 1029 ft 117 kts 304°
2026-04-25 21:55 54.36359 18.52212 850 ft 118 kts 302°
2026-04-25 21:56 54.36675 18.50921 743 ft 117 kts 300°
2026-04-25 21:56 54.36889 18.50081 640 ft 115 kts 302°
2026-04-25 21:56 54.37309 18.48419 485 ft 106 kts 298°
2026-04-25 21:56 54.37542 18.47512 466 ft 59 kts 294°
2026-04-25 21:57 54.37630 18.47137 460 ft 9 kts 295°
2026-04-25 21:57 54.37689 18.46947 457 ft 29 kts 304°
2026-04-25 21:57 54.37781 18.46789 458 ft 7 kts 324°
2026-04-25 21:57 54.37813 18.46754 458 ft 4 kts 326°
2026-04-25 21:58 54.37837 18.46723 458 ft 5 kts 323°
2026-04-25 21:58 54.37871 18.46679 459 ft 7 kts 322°
2026-04-25 21:58 54.37913 18.46622 459 ft 9 kts 322°
2026-04-25 21:58 54.37971 18.46579 460 ft 10 kts
2026-04-25 21:59 54.38041 18.46618 460 ft 10 kts 11°
2026-04-25 21:59 54.38084 18.46535 460 ft 11 kts 292°
2026-04-25 21:59 54.38110 18.46476 460 ft 3 kts 353°
2026-04-25 22:00 54.38144 18.46501 460 ft 0 kts 24°